EXS7GY LGKO-EGNM

Flight info

Callsign EXS7GY
Flight time N/A
Altitude 41000
Route LARKI UL609 MES DCT GIKAS DCT FSK UL608 DISOR DCT LONTA UL608 DOLEV DCT OBUTI DCT BAGSI DCT RENKA DCT GASKA DCT MASEK DCT OTMEC DCT PAM DCT RAVLO Y70 BATLI DCT LBA
Aircraft B738/M-SDE2E3FGHIRWXY/LB1

Departure

Time 2026-05-08 14:39
Airport Kos International Airport "Ippokratis" (LGKO)

Arrival

Time N/A
Airport Leeds Bradford Airport (EGNM)
Time Latitude Longitude Altitude Speed Heading
2026-05-08 14:09 36.80079 27.08984 418 ft 0 kts 58°
2026-05-08 14:29 36.80079 27.08983 418 ft 0 kts 58°
2026-05-08 14:29 36.80067 27.08960 407 ft 4 kts 58°
2026-05-08 14:29 36.80054 27.08934 418 ft 3 kts 58°
2026-05-08 14:29 36.80046 27.08907 410 ft 4 kts 109°
2026-05-08 14:30 36.80061 27.08884 410 ft 4 kts 148°
2026-05-08 14:30 36.80069 27.08878 413 ft 0 kts 148°
2026-05-08 14:34 36.80067 27.08879 418 ft 0 kts 148°
2026-05-08 14:34 36.80065 27.08881 418 ft 2 kts 149°
2026-05-08 14:34 36.80041 27.08899 418 ft 7 kts 148°
2026-05-08 14:35 36.79986 27.08943 418 ft 12 kts 147°
2026-05-08 14:35 36.79903 27.08984 411 ft 15 kts 179°
2026-05-08 14:35 36.79790 27.08985 413 ft 17 kts 178°
2026-05-08 14:35 36.79666 27.08990 416 ft 18 kts 178°
2026-05-08 14:36 36.79545 27.09049 413 ft 21 kts 147°
2026-05-08 14:36 36.79411 27.09157 410 ft 25 kts 147°
2026-05-08 14:36 36.79254 27.09270 407 ft 26 kts 148°
2026-05-08 14:36 36.79104 27.09390 400 ft 25 kts 148°
2026-05-08 14:37 36.78959 27.09502 396 ft 24 kts 147°
2026-05-08 14:37 36.78824 27.09609 394 ft 23 kts 148°
2026-05-08 14:37 36.78692 27.09712 392 ft 22 kts 148°
2026-05-08 14:37 36.78586 27.09826 387 ft 15 kts 144°
2026-05-08 14:38 36.78566 27.09804 387 ft 4 kts 328°
2026-05-08 14:38 36.78589 27.09785 389 ft 5 kts 324°
2026-05-08 14:38 36.78764 27.09652 392 ft 66 kts 328°
2026-05-08 14:38 36.79363 27.09184 411 ft 134 kts 328°
2026-05-08 14:39 36.80315 27.08436 537 ft 180 kts 328°
2026-05-08 14:39 36.81411 27.07668 1399 ft 183 kts 333°
2026-05-08 14:39 36.82371 27.06588 1986 ft 201 kts 294°
2026-05-08 14:39 36.82463 27.04823 2387 ft 212 kts 250°
2026-05-08 14:40 36.82080 27.03030 2837 ft 220 kts 272°
2026-05-08 14:40 36.82639 27.01195 3129 ft 239 kts 305°
2026-05-08 14:40 36.83646 26.99497 3604 ft 247 kts 304°
2026-05-08 14:40 36.84637 26.97731 4250 ft 248 kts 303°
2026-05-08 14:41 36.85621 26.95914 4751 ft 262 kts 302°
2026-05-08 14:41 36.86644 26.93974 5329 ft 271 kts 301°
2026-05-08 14:41 36.87668 26.91998 6130 ft 272 kts 300°
2026-05-08 14:41 36.88685 26.90008 6943 ft 272 kts 300°
2026-05-08 14:42 36.89696 26.88019 7742 ft 271 kts 299°
2026-05-08 14:42 36.90698 26.86034 8598 ft 268 kts 299°
2026-05-08 14:42 36.91680 26.84081 9507 ft 265 kts 299°
2026-05-08 14:42 36.92661 26.82127 10257 ft 266 kts 300°
2026-05-08 14:43 36.93669 26.80114 10589 ft 284 kts 300°
2026-05-08 14:43 36.94738 26.77931 10758 ft 305 kts 298°
2026-05-08 14:43 36.95850 26.75565 10933 ft 325 kts 298°
2026-05-08 14:43 36.97318 26.73399 11305 ft 342 kts 322°
2026-05-08 14:44 36.99578 26.72280 11955 ft 355 kts 349°
2026-05-08 14:44 37.02071 26.72533 12658 ft 367 kts
2026-05-08 14:44 37.04535 26.73432 13309 ft 372 kts 12°
2026-05-08 14:44 37.06993 26.74365 13888 ft 376 kts 11°
2026-05-08 14:45 37.09521 26.75256 14444 ft 379 kts 10°
2026-05-08 14:45 37.12083 26.76076 14987 ft 382 kts
2026-05-08 14:45 37.14674 26.76845 15566 ft 384 kts
2026-05-08 14:45 37.17284 26.77582 16165 ft 385 kts
2026-05-08 14:46 37.19910 26.78307 16755 ft 388 kts
2026-05-08 14:46 37.22554 26.79030 17317 ft 391 kts
2026-05-08 14:46 37.25219 26.79758 17872 ft 393 kts
2026-05-08 14:46 37.27901 26.80493 18407 ft 396 kts
2026-05-08 14:47 37.30603 26.81235 18872 ft 399 kts
2026-05-08 14:47 37.33323 26.81981 19338 ft 401 kts
2026-05-08 14:47 37.36055 26.82706 19825 ft 401 kts
2026-05-08 14:47 37.38789 26.82687 20298 ft 390 kts 343°
2026-05-08 14:48 37.41355 26.81699 20811 ft 383 kts 332°
2026-05-08 14:48 37.43604 26.79970 21282 ft 378 kts 318°
2026-05-08 14:48 37.45622 26.77842 21746 ft 379 kts 316°
2026-05-08 14:48 37.47610 26.75647 22182 ft 381 kts 316°
2026-05-08 14:49 37.49601 26.73433 22616 ft 383 kts 316°
2026-05-08 14:49 37.51610 26.71216 23056 ft 385 kts 316°
2026-05-08 14:49 37.53634 26.69002 23495 ft 386 kts 316°
2026-05-08 14:49 37.55674 26.66785 23873 ft 388 kts 316°
2026-05-08 14:50 37.57726 26.64563 24199 ft 390 kts 316°
2026-05-08 14:50 37.59794 26.62325 24508 ft 393 kts 316°
2026-05-08 14:50 37.61871 26.60078 24820 ft 395 kts 316°
2026-05-08 14:50 37.63964 26.57813 25134 ft 397 kts 316°
2026-05-08 14:51 37.66065 26.55536 25446 ft 400 kts 315°
2026-05-08 14:51 37.68188 26.53230 25653 ft 405 kts 315°
2026-05-08 14:51 37.70325 26.50904 25941 ft 407 kts 315°
2026-05-08 14:51 37.72471 26.48559 26262 ft 408 kts 315°
2026-05-08 14:52 37.74620 26.46208 26580 ft 410 kts 315°
2026-05-08 14:52 37.78951 26.41470 27139 ft 414 kts 315°
2026-05-08 14:52 37.81137 26.39079 27418 ft 416 kts 315°
2026-05-08 14:53 37.83330 26.36679 27718 ft 418 kts 315°
2026-05-08 14:53 37.85524 26.34273 28061 ft 418 kts 314°
2026-05-08 14:53 37.87723 26.31861 28342 ft 419 kts 314°
2026-05-08 14:53 37.89934 26.29436 28585 ft 422 kts 314°
2026-05-08 14:54 37.92154 26.27003 28896 ft 422 kts 314°
2026-05-08 14:54 37.94369 26.24577 29330 ft 420 kts 314°
2026-05-08 14:54 37.96565 26.22172 29867 ft 415 kts 314°
2026-05-08 14:54 37.98747 26.19781 30289 ft 413 kts 314°
2026-05-08 14:55 38.00920 26.17394 30548 ft 414 kts 314°
2026-05-08 14:55 38.03098 26.14998 30777 ft 415 kts 313°
2026-05-08 14:55 38.05281 26.12595 31061 ft 415 kts 313°
2026-05-08 14:55 38.07453 26.10203 31369 ft 413 kts 313°
2026-05-08 14:56 38.09628 26.07805 31678 ft 413 kts 313°
2026-05-08 14:56 38.11789 26.05420 31960 ft 413 kts 313°
2026-05-08 14:56 38.13956 26.03029 32298 ft 411 kts 313°
2026-05-08 14:56 38.16104 26.00660 32673 ft 408 kts 313°
2026-05-08 14:57 38.18247 25.98292 32943 ft 408 kts 312°
2026-05-08 14:57 38.20389 25.95924 33154 ft 409 kts 312°
2026-05-08 14:57 38.22534 25.93548 33442 ft 408 kts 312°
2026-05-08 14:57 38.24670 25.91183 33787 ft 406 kts 313°
2026-05-08 14:58 38.26858 25.88906 34070 ft 407 kts 315°
2026-05-08 14:58 38.29102 25.86702 34262 ft 408 kts 315°
2026-05-08 14:58 38.31368 25.84512 34417 ft 410 kts 316°
2026-05-08 14:58 38.33643 25.82323 34593 ft 410 kts 316°
2026-05-08 14:59 38.35147 25.80873 34731 ft 409 kts 316°
2026-05-08 14:59 38.40414 25.75770 35095 ft 411 kts 316°
2026-05-08 14:59 38.42691 25.73550 35087 ft 413 kts 316°
2026-05-08 15:00 38.47234 25.69115 35079 ft 410 kts 315°
2026-05-08 15:00 38.51014 25.65419 35080 ft 407 kts 315°
2026-05-08 15:01 38.55463 25.61059 35079 ft 405 kts 315°
2026-05-08 15:01 38.59918 25.56684 35088 ft 404 kts 315°
2026-05-08 15:02 38.64374 25.52299 35075 ft 404 kts 315°
2026-05-08 15:02 38.68833 25.47905 35083 ft 406 kts 315°
2026-05-08 15:03 38.73320 25.43476 35077 ft 408 kts 315°
2026-05-08 15:03 38.77831 25.39017 35077 ft 411 kts 315°
2026-05-08 15:04 38.82369 25.34524 35070 ft 414 kts 315°
2026-05-08 15:04 38.86937 25.29996 35077 ft 416 kts 315°
2026-05-08 15:05 38.91521 25.25443 35063 ft 417 kts 315°
2026-05-08 15:05 38.96112 25.20877 35073 ft 418 kts 315°
2026-05-08 15:06 39.00706 25.16300 35064 ft 418 kts 315°
2026-05-08 15:06 39.05292 25.11724 35061 ft 417 kts 315°
2026-05-08 15:07 39.09869 25.07148 35062 ft 416 kts 315°
2026-05-08 15:07 39.14433 25.02578 35061 ft 415 kts 315°
2026-05-08 15:08 39.18984 24.98013 35065 ft 414 kts 314°
2026-05-08 15:08 39.23525 24.93450 35066 ft 414 kts 314°
2026-05-08 15:09 39.28030 24.88913 35062 ft 413 kts 314°
2026-05-08 15:09 39.32570 24.84355 35057 ft 413 kts 315°
2026-05-08 15:10 39.37095 24.79789 35058 ft 413 kts 314°
2026-05-08 15:10 39.41625 24.75200 35055 ft 413 kts 314°
2026-05-08 15:11 39.46150 24.70611 35056 ft 414 kts 314°
2026-05-08 15:11 39.50687 24.66005 35061 ft 415 kts 315°
2026-05-08 15:12 39.55237 24.61378 35062 ft 416 kts 315°
2026-05-08 15:12 39.59798 24.56731 35062 ft 418 kts 315°
2026-05-08 15:13 39.64376 24.52058 35054 ft 419 kts 315°
2026-05-08 15:13 39.68961 24.47370 35058 ft 420 kts 315°
2026-05-08 15:14 39.73557 24.42662 35052 ft 421 kts 315°
2026-05-08 15:14 39.78157 24.37942 35073 ft 422 kts 315°
2026-05-08 15:15 39.82775 24.33194 35060 ft 423 kts 315°
2026-05-08 15:15 39.87400 24.28431 35045 ft 424 kts 315°
2026-05-08 15:16 39.92031 24.23654 35054 ft 425 kts 315°
2026-05-08 15:16 39.96668 24.18863 35062 ft 425 kts 315°
2026-05-08 15:17 40.01305 24.14063 35056 ft 426 kts 315°
2026-05-08 15:17 40.05948 24.09248 35054 ft 427 kts 316°
2026-05-08 15:18 40.10598 24.04419 35064 ft 428 kts 316°
2026-05-08 15:18 40.15258 23.99566 35068 ft 429 kts 316°
2026-05-08 15:19 40.19927 23.94696 35065 ft 430 kts 316°
2026-05-08 15:19 40.24608 23.89805 35061 ft 431 kts 316°
2026-05-08 15:20 40.29296 23.84900 35060 ft 432 kts 316°
2026-05-08 15:20 40.33986 23.79983 35066 ft 432 kts 316°
2026-05-08 15:21 40.38682 23.75051 35065 ft 433 kts 316°
2026-05-08 15:21 40.43384 23.70101 35065 ft 434 kts 316°
2026-05-08 15:22 40.48089 23.65141 35062 ft 434 kts 316°
2026-05-08 15:22 40.52798 23.60168 35060 ft 434 kts 316°
2026-05-08 15:23 40.57509 23.55179 35067 ft 435 kts 317°
2026-05-08 15:23 40.62224 23.50181 35071 ft 435 kts 317°
2026-05-08 15:24 40.66913 23.45202 35066 ft 436 kts 317°
2026-05-08 15:24 40.71662 23.40149 35077 ft 436 kts 317°
2026-05-08 15:25 40.76392 23.35105 35076 ft 438 kts 317°
2026-05-08 15:25 40.81137 23.30037 35077 ft 439 kts 318°
2026-05-08 15:26 40.85884 23.24956 35068 ft 439 kts 318°
2026-05-08 15:26 40.90626 23.19872 35067 ft 439 kts 318°
2026-05-08 15:27 40.95367 23.14778 35062 ft 439 kts 318°
2026-05-08 15:27 41.00073 23.09711 35077 ft 439 kts 318°
2026-05-08 15:28 41.04807 23.04606 35068 ft 439 kts 319°
2026-05-08 15:28 41.09534 22.99470 35064 ft 439 kts 316°
2026-05-08 15:29 41.13617 22.93500 35071 ft 437 kts 308°
2026-05-08 15:29 41.17474 22.87243 35071 ft 440 kts 308°
2026-05-08 15:30 41.21404 22.80998 35061 ft 441 kts 308°
2026-05-08 15:30 41.25383 22.74733 35078 ft 442 kts 309°
2026-05-08 15:31 41.27425 22.71670 35188 ft 443 kts 311°
2026-05-08 15:31 41.29501 22.68650 35430 ft 442 kts 311°
2026-05-08 15:31 41.31580 22.65651 35714 ft 439 kts 311°
2026-05-08 15:31 41.33647 22.62667 35981 ft 437 kts 310°
2026-05-08 15:32 41.37773 22.56668 36055 ft 441 kts 310°
2026-05-08 15:32 41.41891 22.50629 36045 ft 439 kts 310°
2026-05-08 15:33 41.45977 22.44613 36051 ft 436 kts 310°
2026-05-08 15:33 41.50007 22.38665 36039 ft 435 kts 310°
2026-05-08 15:34 41.54051 22.32685 36036 ft 433 kts 310°
2026-05-08 15:34 41.58082 22.26712 36035 ft 433 kts 310°
2026-05-08 15:35 41.62115 22.20726 36035 ft 434 kts 310°
2026-05-08 15:35 41.66162 22.14706 36034 ft 436 kts 310°
2026-05-08 15:36 41.69563 22.09640 36029 ft 438 kts 310°
2026-05-08 15:36 41.74300 22.02562 36028 ft 440 kts 310°
2026-05-08 15:37 41.78396 21.96430 36028 ft 443 kts 310°
2026-05-08 15:37 41.82514 21.90257 36026 ft 444 kts 310°
2026-05-08 15:38 41.86636 21.84063 36022 ft 445 kts 310°
2026-05-08 15:38 41.90757 21.77856 36032 ft 446 kts 310°
2026-05-08 15:39 41.94880 21.71639 36018 ft 445 kts 310°
2026-05-08 15:39 41.98990 21.65419 36018 ft 444 kts 309°
2026-05-08 15:40 42.03085 21.59211 36031 ft 444 kts 309°
2026-05-08 15:40 42.07180 21.52991 36031 ft 444 kts 309°
2026-05-08 15:41 42.11277 21.46755 36015 ft 445 kts 309°
2026-05-08 15:41 42.15365 21.40520 36019 ft 443 kts 309°
2026-05-08 15:42 42.19367 21.34244 36025 ft 440 kts 308°
2026-05-08 15:42 42.23320 21.27949 36025 ft 439 kts 308°
2026-05-08 15:43 42.27264 21.21671 36036 ft 438 kts 308°
2026-05-08 15:43 42.31199 21.15406 36042 ft 437 kts 308°